Find Starlink 4208

NORAD ID: 52844 Int'l Des: 2022-062 Owner: SPXS Country: US Constellation: starlink operational
LEOCIRCULAR

現在のビュー

3D地球を読み込み中...

About Starlink 4208

Starlink 4208 (NORAD 52844) is a starlink constellation satellite (v1.5) launched Jun 17, 2022 by SPXS of US. It operates in LEO, CIRCULAR orbit with a mass of 297.00 kg.

Starlink 4208について

説明を読み込み中...

次回通過

Passes for default location (London). Set your location on the main map for personalized predictions.

高度履歴

Loading altitude history...

軌道要素

1 52844U 22062Q 26169.68526726 .00001372 00000-0 10430-3 0 9995
2 52844 53.1608 300.6274 0001061 92.1920 267.9193 15.08837547221034
Epoch: Jun 18, 2026 • Age: 14 hours

現在のステータス

高度 546.6 km
速度 7.59 km/s
衛星直下点 -22.68°S, 87.09°W
打ち上げ日 Jun 17, 2022
運用期間 4 years
タイプ internet

技術仕様

分類 Payload
質量 297.00 kg
乾燥質量 275.00 kg
総質量 297.00 kg
長さ 0.20 m
直径 2.80 m
スパン 9.00 m
形状 Box + pan
製造者 SPXS
バスタイプ Starlink
フェーズステータス In Orbit
所有者/国 SPXS/US

Most Searched